CCA1362 ZJHK-ZBAA

Flight info

Callsign CCA1362
Flight time N/A
Altitude 35100
Route AGTEL9XD AGTEL W71 LH R339 BHY W159 IVPUB W120 ENKUS DCT JW W2 SJG W102 EMVIL W284 UPSIK W4 VADMO W56 DUGEB DUGEB4A
Aircraft A320/M-SDE3FGHIRWY/LB1

Departure

Time 2026-04-22 12:27
Airport Haikou Meilan International Airport (ZJHK)

Arrival

Time N/A
Airport Beijing Capital International Airport (ZBAA)
Time Latitude Longitude Altitude Speed Heading
2026-04-22 11:44 19.93947 110.45462 59 ft 0 kts 315°
2026-04-22 12:13 19.93940 110.45469 33 ft 3 kts 313°
2026-04-22 12:13 19.93927 110.45486 52 ft 3 kts 308°
2026-04-22 12:13 19.93915 110.45503 54 ft 3 kts 302°
2026-04-22 12:14 19.93904 110.45521 57 ft 3 kts 297°
2026-04-22 12:14 19.93896 110.45541 50 ft 3 kts 290°
2026-04-22 12:14 19.93890 110.45561 52 ft 3 kts 279°
2026-04-22 12:14 19.93889 110.45582 53 ft 2 kts 257°
2026-04-22 12:15 19.93890 110.45588 54 ft 0 kts 249°
2026-04-22 12:18 19.93880 110.45577 54 ft 4 kts 222°
2026-04-22 12:18 19.93842 110.45569 53 ft 7 kts 184°
2026-04-22 12:18 19.93784 110.45570 57 ft 9 kts 180°
2026-04-22 12:19 19.93742 110.45562 57 ft 6 kts 214°
2026-04-22 12:19 19.93731 110.45529 57 ft 5 kts 266°
2026-04-22 12:19 19.93729 110.45479 59 ft 8 kts 269°
2026-04-22 12:19 19.93730 110.45404 59 ft 12 kts 272°
2026-04-22 12:20 19.93729 110.45302 59 ft 16 kts 269°
2026-04-22 12:20 19.93729 110.45173 59 ft 19 kts 270°
2026-04-22 12:20 19.93728 110.45042 59 ft 13 kts 270°
2026-04-22 12:20 19.93789 110.44990 54 ft 15 kts 353°
2026-04-22 12:21 19.93903 110.44989 53 ft 18 kts
2026-04-22 12:21 19.94043 110.44988 57 ft 22 kts 359°
2026-04-22 12:21 19.94206 110.44987 54 ft 25 kts
2026-04-22 12:21 19.94383 110.44986 56 ft 26 kts 360°
2026-04-22 12:22 19.94566 110.44985 53 ft 27 kts 359°
2026-04-22 12:22 19.94753 110.44985 54 ft 27 kts 360°
2026-04-22 12:22 19.94926 110.44985 59 ft 16 kts 354°
2026-04-22 12:22 19.95016 110.44983 55 ft 12 kts 12°
2026-04-22 12:23 19.95061 110.44968 57 ft 10 kts 313°
2026-04-22 12:23 19.95108 110.44905 56 ft 12 kts 308°
2026-04-22 12:23 19.95164 110.44832 58 ft 12 kts 317°
2026-04-22 12:23 19.95231 110.44820 58 ft 8 kts
2026-04-22 12:24 19.95256 110.44821 58 ft 0 kts
2026-04-22 12:24 19.95258 110.44821 58 ft 1 kts
2026-04-22 12:25 19.95281 110.44821 63 ft 5 kts
2026-04-22 12:25 19.95329 110.44835 65 ft 9 kts 25°
2026-04-22 12:25 19.95372 110.44900 64 ft 12 kts 89°
2026-04-22 12:25 19.95372 110.44908 61 ft 0 kts 89°
2026-04-22 12:26 19.95372 110.44965 66 ft 30 kts 90°
2026-04-22 12:26 19.95373 110.45456 69 ft 99 kts 90°
2026-04-22 12:26 19.95376 110.46384 66 ft 150 kts 90°
2026-04-22 12:27 19.95376 110.47620 323 ft 171 kts 92°
2026-04-22 12:27 19.95477 110.48863 969 ft 172 kts 74°
2026-04-22 12:27 19.96187 110.49900 1567 ft 182 kts 31°
2026-04-22 12:27 19.97404 110.50125 2099 ft 182 kts 343°
2026-04-22 12:28 19.98556 110.49645 2675 ft 177 kts 335°
2026-04-22 12:28 19.99687 110.49137 3167 ft 177 kts 335°
2026-04-22 12:28 20.00876 110.48605 3416 ft 196 kts 335°
2026-04-22 12:28 20.02206 110.48007 3610 ft 218 kts 335°
2026-04-22 12:29 20.03678 110.47350 3812 ft 241 kts 336°
2026-04-22 12:29 20.05264 110.46650 4391 ft 249 kts 336°
2026-04-22 12:29 20.06876 110.45940 5104 ft 253 kts 335°
2026-04-22 12:29 20.08512 110.45220 5785 ft 257 kts 335°
2026-04-22 12:30 20.11860 110.43746 7121 ft 263 kts 335°
2026-04-22 12:30 20.13583 110.42989 7827 ft 266 kts 335°
2026-04-22 12:30 20.15298 110.42233 8519 ft 268 kts 335°
2026-04-22 12:31 20.17024 110.41472 9209 ft 270 kts 335°
2026-04-22 12:31 20.18782 110.40697 9687 ft 275 kts 335°
2026-04-22 12:31 20.20546 110.39920 9801 ft 274 kts 335°
2026-04-22 12:31 20.22303 110.39147 9827 ft 273 kts 335°
2026-04-22 12:32 20.24059 110.38373 9989 ft 275 kts 335°
2026-04-22 12:32 20.27755 110.36882 10769 ft 303 kts 339°
2026-04-22 12:32 20.29836 110.36165 10897 ft 326 kts 340°
2026-04-22 12:33 20.32074 110.35418 11017 ft 347 kts 340°
2026-04-22 12:33 20.34445 110.34634 11193 ft 364 kts 340°
2026-04-22 12:33 20.36887 110.33821 11638 ft 371 kts 340°
2026-04-22 12:33 20.39365 110.32989 12190 ft 375 kts 340°
2026-04-22 12:34 20.41866 110.32140 12752 ft 378 kts 340°
2026-04-22 12:34 20.44372 110.31284 13309 ft 381 kts 340°
2026-04-22 12:34 20.46917 110.30408 13827 ft 385 kts 339°
2026-04-22 12:34 20.49512 110.29672 14316 ft 390 kts 348°
2026-04-22 12:35 20.52234 110.29473 14805 ft 395 kts 360°
2026-04-22 12:35 20.54981 110.29652 15292 ft 398 kts
2026-04-22 12:35 20.57755 110.29841 15764 ft 400 kts
2026-04-22 12:35 20.60539 110.30029 16238 ft 402 kts
2026-04-22 12:36 20.63338 110.30215 16699 ft 404 kts
2026-04-22 12:36 20.66151 110.30399 17163 ft 406 kts
2026-04-22 12:36 20.68978 110.30582 17599 ft 409 kts
2026-04-22 12:36 20.71831 110.30768 18032 ft 411 kts
2026-04-22 12:37 20.74692 110.30956 18407 ft 413 kts
2026-04-22 12:37 20.77574 110.31143 18773 ft 416 kts
2026-04-22 12:37 20.80462 110.31329 19129 ft 418 kts
2026-04-22 12:37 20.83376 110.31518 19495 ft 420 kts
2026-04-22 12:38 20.86299 110.31709 19834 ft 422 kts
2026-04-22 12:38 20.89269 110.31905 20186 ft 424 kts
2026-04-22 12:38 20.92194 110.32100 20546 ft 426 kts
2026-04-22 12:38 20.95199 110.32301 20887 ft 429 kts
2026-04-22 12:39 20.98186 110.32497 21225 ft 431 kts
2026-04-22 12:39 21.04206 110.32855 21893 ft 435 kts 360°
2026-04-22 12:39 21.07227 110.32811 22207 ft 433 kts 349°
2026-04-22 12:40 21.10141 110.32078 22522 ft 430 kts 337°
2026-04-22 12:40 21.12823 110.30686 22826 ft 428 kts 324°
2026-04-22 12:40 21.15143 110.28713 23130 ft 426 kts 312°
2026-04-22 12:40 21.17003 110.26261 23414 ft 425 kts 301°
2026-04-22 12:41 21.18448 110.23503 23656 ft 426 kts 297°
2026-04-22 12:41 21.19861 110.20706 23904 ft 427 kts 297°
2026-04-22 12:41 21.21276 110.17905 24155 ft 429 kts 297°
2026-04-22 12:41 21.22700 110.15086 24409 ft 430 kts 297°
2026-04-22 12:42 21.24126 110.12260 24659 ft 432 kts 297°
2026-04-22 12:42 21.25557 110.09421 24911 ft 433 kts 297°
2026-04-22 12:42 21.26988 110.06578 25157 ft 435 kts 297°
2026-04-22 12:42 21.28427 110.03716 25403 ft 436 kts 296°
2026-04-22 12:43 21.29866 110.00847 25661 ft 438 kts 296°
2026-04-22 12:43 21.31307 109.97968 25903 ft 439 kts 296°
2026-04-22 12:43 21.32755 109.95077 26145 ft 441 kts 296°
2026-04-22 12:43 21.34210 109.92178 26381 ft 442 kts 296°
2026-04-22 12:44 21.35667 109.89269 26612 ft 443 kts 296°
2026-04-22 12:44 21.37146 109.86315 26846 ft 444 kts 296°
2026-04-22 12:44 21.38612 109.83394 27073 ft 446 kts 296°
2026-04-22 12:44 21.40083 109.80462 27314 ft 447 kts 296°
2026-04-22 12:45 21.41559 109.77516 27527 ft 448 kts 296°
2026-04-22 12:45 21.43033 109.74567 27749 ft 449 kts 296°
2026-04-22 12:45 21.44510 109.71607 27968 ft 451 kts 296°
2026-04-22 12:45 21.45993 109.68630 28173 ft 452 kts 296°
2026-04-22 12:46 21.47477 109.65655 28415 ft 452 kts 296°
2026-04-22 12:46 21.48960 109.62681 28733 ft 451 kts 296°
2026-04-22 12:46 21.50438 109.59715 29052 ft 450 kts 296°
2026-04-22 12:46 21.51911 109.56757 29374 ft 449 kts 296°
2026-04-22 12:47 21.53383 109.53800 29701 ft 448 kts 296°
2026-04-22 12:47 21.54849 109.50855 30002 ft 447 kts 296°
2026-04-22 12:47 21.56543 109.48062 30271 ft 448 kts 307°
2026-04-22 12:47 21.58744 109.45685 30561 ft 451 kts 318°
2026-04-22 12:48 21.61379 109.43834 30846 ft 456 kts 330°
2026-04-22 12:48 21.64346 109.42604 31131 ft 461 kts 341°
2026-04-22 12:48 21.67524 109.42026 31404 ft 465 kts 349°
2026-04-22 12:48 21.70738 109.41622 31682 ft 464 kts 348°
2026-04-22 12:49 21.73934 109.41215 31970 ft 463 kts 348°
2026-04-22 12:49 21.77123 109.40800 32261 ft 461 kts 348°
2026-04-22 12:49 21.80349 109.40379 32552 ft 460 kts 348°
2026-04-22 12:49 21.83526 109.39964 32844 ft 459 kts 348°
2026-04-22 12:50 21.86653 109.39557 33123 ft 458 kts 348°
2026-04-22 12:50 21.89859 109.39139 33407 ft 457 kts 348°
2026-04-22 12:50 21.93016 109.38729 33702 ft 457 kts 348°
2026-04-22 12:50 21.96156 109.38318 33965 ft 455 kts 348°
2026-04-22 12:51 21.99311 109.37907 34217 ft 455 kts 348°
2026-04-22 12:51 22.02444 109.37501 34459 ft 454 kts 348°
2026-04-22 12:51 22.05581 109.37096 34692 ft 453 kts 347°
2026-04-22 12:51 22.08708 109.36692 34861 ft 453 kts 348°
2026-04-22 12:52 22.11840 109.36287 34908 ft 454 kts 348°
2026-04-22 12:52 22.18111 109.35474 34908 ft 454 kts 347°
2026-04-22 12:53 22.24375 109.34650 34910 ft 453 kts 347°
2026-04-22 12:53 22.30730 109.34669 34913 ft 466 kts
2026-04-22 12:54 22.37113 109.35942 34915 ft 467 kts
2026-04-22 12:54 22.42472 109.36997 34917 ft 467 kts
2026-04-22 12:55 22.48869 109.38247 34920 ft 467 kts
2026-04-22 12:55 22.55267 109.39506 34919 ft 467 kts
2026-04-22 12:56 22.61657 109.40766 34916 ft 467 kts
2026-04-22 12:56 22.68063 109.42031 34920 ft 468 kts
2026-04-22 12:57 22.74467 109.43294 34930 ft 468 kts
2026-04-22 12:57 22.80871 109.44559 34932 ft 468 kts
2026-04-22 12:58 22.87266 109.45823 34936 ft 468 kts
2026-04-22 12:58 22.93685 109.47089 34935 ft 468 kts
2026-04-22 12:59 23.00096 109.48362 34934 ft 469 kts
2026-04-22 12:59 23.06521 109.49643 34942 ft 469 kts
2026-04-22 13:00 23.12950 109.50914 34946 ft 470 kts
2026-04-22 13:00 23.19420 109.52195 34934 ft 469 kts
2026-04-22 13:01 23.25851 109.53476 34939 ft 470 kts
2026-04-22 13:01 23.32290 109.54764 34946 ft 471 kts
2026-04-22 13:02 23.38731 109.56054 34949 ft 471 kts
2026-04-22 13:02 23.45173 109.57340 34946 ft 471 kts
2026-04-22 13:03 23.51635 109.58629 34950 ft 472 kts
2026-04-22 13:03 23.58088 109.59915 34960 ft 472 kts
2026-04-22 13:04 23.64542 109.61199 34958 ft 472 kts
2026-04-22 13:04 23.70999 109.62497 34965 ft 472 kts
2026-04-22 13:05 23.77446 109.63793 34973 ft 472 kts
2026-04-22 13:05 23.83912 109.65093 34977 ft 472 kts
2026-04-22 13:06 23.90377 109.66385 34980 ft 472 kts
2026-04-22 13:06 23.96827 109.67682 34985 ft 472 kts
2026-04-22 13:07 24.03304 109.68985 34988 ft 473 kts
2026-04-22 13:07 24.09813 109.70300 34991 ft 473 kts
2026-04-22 13:08 24.16286 109.71606 34998 ft 473 kts
2026-04-22 13:08 24.22761 109.72908 35005 ft 473 kts
2026-04-22 13:09 24.29223 109.74214 35009 ft 472 kts
2026-04-22 13:09 24.35683 109.75523 35012 ft 472 kts
2026-04-22 13:10 24.42133 109.76828 35015 ft 471 kts
2026-04-22 13:10 24.48582 109.78139 35020 ft 471 kts
2026-04-22 13:11 24.55021 109.79451 35021 ft 471 kts
2026-04-22 13:11 24.61504 109.80764 35028 ft 471 kts
2026-04-22 13:12 24.67916 109.82382 35017 ft 482 kts 12°
2026-04-22 13:12 24.74008 109.85732 35016 ft 492 kts 20°
2026-04-22 13:13 24.80036 109.89314 35021 ft 493 kts 20°
2026-04-22 13:13 24.86092 109.92899 35029 ft 494 kts 20°
2026-04-22 13:14 24.92141 109.96484 35052 ft 495 kts 20°
2026-04-22 13:14 24.98222 110.00038 35075 ft 491 kts 15°
2026-04-22 13:14 25.01383 110.01332 35085 ft 480 kts
2026-04-22 13:15 25.04603 110.02080 35093 ft 468 kts 358°
2026-04-22 13:15 25.11055 110.02779 35102 ft 465 kts 356°
2026-04-22 13:16 25.17505 110.03483 35105 ft 466 kts 356°
2026-04-22 13:16 25.23964 110.04189 35108 ft 467 kts 356°
2026-04-22 13:17 25.30465 110.04901 35110 ft 467 kts 356°
2026-04-22 13:17 25.36818 110.04879 35106 ft 444 kts 339°
2026-04-22 13:17 25.39742 110.03979 35103 ft 430 kts 329°
2026-04-22 13:18 25.42403 110.02557 35098 ft 418 kts 320°
2026-04-22 13:18 25.44720 110.00720 35095 ft 407 kts 311°
2026-04-22 13:18 25.46712 109.98521 35093 ft 400 kts 305°
2026-04-22 13:19 25.50473 109.93959 35088 ft 402 kts 305°
2026-04-22 13:19 25.54253 109.89401 35091 ft 402 kts 305°
2026-04-22 13:20 25.58032 109.84836 35095 ft 402 kts 305°
2026-04-22 13:20 25.61828 109.80247 35100 ft 401 kts 306°
2026-04-22 13:21 25.65586 109.75692 35103 ft 401 kts 305°
2026-04-22 13:21 25.69343 109.71128 35104 ft 401 kts 305°
2026-04-22 13:22 25.73097 109.66565 35111 ft 400 kts 305°
2026-04-22 13:22 25.77515 109.62666 35111 ft 422 kts 326°
2026-04-22 13:22 25.80338 109.61598 35112 ft 440 kts 339°
2026-04-22 13:23 25.83460 109.61312 35117 ft 459 kts 352°
2026-04-22 13:23 25.89868 109.61680 35116 ft 462 kts 352°
2026-04-22 13:24 25.96285 109.62053 35123 ft 462 kts 352°
2026-04-22 13:24 26.02705 109.62414 35123 ft 462 kts 352°
2026-04-22 13:25 26.09121 109.62766 35122 ft 462 kts 352°
2026-04-22 13:25 26.14501 109.63070 35131 ft 462 kts 352°
2026-04-22 13:26 26.20914 109.63449 35133 ft 461 kts 352°
2026-04-22 13:26 26.27329 109.63808 35140 ft 461 kts 352°
2026-04-22 13:27 26.33727 109.64159 35142 ft 461 kts 352°
2026-04-22 13:27 26.40127 109.64528 35141 ft 461 kts 352°
2026-04-22 13:28 26.46537 109.64911 35148 ft 461 kts 352°
2026-04-22 13:28 26.52929 109.65293 35142 ft 460 kts 352°
2026-04-22 13:29 26.59325 109.65678 35155 ft 460 kts 351°
2026-04-22 13:29 26.65751 109.66061 35144 ft 459 kts 351°
2026-04-22 13:30 26.72135 109.66449 35152 ft 459 kts 351°
2026-04-22 13:30 26.78515 109.66831 35151 ft 459 kts 351°
2026-04-22 13:31 26.84889 109.67208 35149 ft 459 kts 351°
2026-04-22 13:31 26.91267 109.67594 35148 ft 459 kts 351°
2026-04-22 13:32 26.97646 109.67978 35147 ft 460 kts 351°
2026-04-22 13:32 27.04038 109.68360 35155 ft 460 kts 351°
2026-04-22 13:33 27.10430 109.68743 35160 ft 460 kts 351°
2026-04-22 13:33 27.16816 109.69128 35163 ft 460 kts 351°
2026-04-22 13:34 27.23209 109.69506 35163 ft 460 kts 351°
2026-04-22 13:34 27.29611 109.69896 35162 ft 461 kts 351°
2026-04-22 13:35 27.36012 109.70289 35167 ft 461 kts 351°
2026-04-22 13:35 27.42418 109.70677 35166 ft 461 kts 351°
2026-04-22 13:36 27.48804 109.70692 35166 ft 453 kts 346°
2026-04-22 13:36 27.55100 109.70441 35166 ft 453 kts 346°
2026-04-22 13:37 27.61399 109.70200 35162 ft 453 kts 346°
2026-04-22 13:37 27.67697 109.69959 35163 ft 453 kts 346°
2026-04-22 13:38 27.74005 109.69714 35168 ft 454 kts 346°
2026-04-22 13:38 27.83474 109.69343 35173 ft 454 kts 346°
2026-04-22 13:39 27.89784 109.69093 35181 ft 454 kts 346°
2026-04-22 13:39 27.96097 109.68850 35181 ft 454 kts 346°
2026-04-22 13:40 28.02411 109.68606 35184 ft 454 kts 346°
2026-04-22 13:40 28.08719 109.68363 35185 ft 453 kts 346°
2026-04-22 13:41 28.15021 109.68132 35193 ft 453 kts 346°
2026-04-22 13:41 28.21335 109.67907 35190 ft 453 kts 346°
2026-04-22 13:42 28.27636 109.67672 35193 ft 453 kts 346°
2026-04-22 13:42 28.33976 109.67428 35193 ft 453 kts 346°
2026-04-22 13:43 28.40276 109.67185 35195 ft 453 kts 346°
2026-04-22 13:43 28.46571 109.66950 35184 ft 453 kts 346°
2026-04-22 13:44 28.52874 109.66721 35187 ft 453 kts 346°
2026-04-22 13:44 28.59168 109.66488 35192 ft 453 kts 346°
2026-04-22 13:45 28.65472 109.66253 35193 ft 453 kts 346°
2026-04-22 13:45 28.71772 109.66009 35193 ft 453 kts 346°
2026-04-22 13:46 28.78063 109.65765 35186 ft 453 kts 346°
2026-04-22 13:46 28.84368 109.65529 35183 ft 454 kts 347°
2026-04-22 13:47 28.90682 109.65295 35186 ft 454 kts 347°
2026-04-22 13:47 28.96991 109.65058 35190 ft 454 kts 347°
2026-04-22 13:48 29.03305 109.64819 35191 ft 453 kts 347°
2026-04-22 13:48 29.09607 109.64581 35189 ft 453 kts 347°
2026-04-22 13:49 29.15905 109.64345 35192 ft 453 kts 347°
2026-04-22 13:49 29.22199 109.64106 35187 ft 452 kts 348°
2026-04-22 13:50 29.28520 109.63863 35181 ft 452 kts 348°
2026-04-22 13:50 29.34805 109.63619 35181 ft 452 kts 348°
2026-04-22 13:51 29.41084 109.63381 35180 ft 451 kts 348°
2026-04-22 13:51 29.47363 109.63140 35181 ft 451 kts 348°
2026-04-22 13:52 29.53643 109.62900 35175 ft 451 kts 348°
2026-04-22 13:52 29.59919 109.62663 35176 ft 452 kts 348°
2026-04-22 13:53 29.66198 109.62432 35171 ft 451 kts 348°
2026-04-22 13:53 29.72481 109.62198 35169 ft 452 kts 348°
2026-04-22 13:54 29.78763 109.61959 35162 ft 452 kts 349°
2026-04-22 13:54 29.85038 109.61720 35164 ft 451 kts 348°
2026-04-22 13:55 29.91312 109.61478 35164 ft 451 kts 348°
2026-04-22 13:55 29.97589 109.61236 35165 ft 452 kts 348°
2026-04-22 13:56 30.03876 109.60998 35161 ft 452 kts 348°
2026-04-22 13:56 30.10163 109.60768 35166 ft 452 kts 348°
2026-04-22 13:57 30.16454 109.60534 35167 ft 452 kts 348°
2026-04-22 13:57 30.22735 109.60305 35168 ft 452 kts 348°
2026-04-22 13:58 30.28002 109.60166 35169 ft 452 kts 349°
2026-04-22 13:58 30.34334 109.60324 35175 ft 458 kts 353°
2026-04-22 13:59 30.40706 109.60904 35178 ft 460 kts 355°
2026-04-22 13:59 30.47080 109.61595 35170 ft 460 kts 355°
2026-04-22 14:00 30.53453 109.62235 35163 ft 459 kts 354°
2026-04-22 14:00 30.59816 109.62811 35162 ft 459 kts 354°
2026-04-22 14:01 30.66192 109.63374 35161 ft 459 kts 354°
2026-04-22 14:01 30.72561 109.63953 35157 ft 460 kts 354°
2026-04-22 14:02 30.78983 109.64547 35155 ft 460 kts 354°
2026-04-22 14:02 30.85368 109.65131 35157 ft 460 kts 354°
2026-04-22 14:03 30.91760 109.65717 35153 ft 461 kts 354°
2026-04-22 14:03 30.98157 109.66298 35153 ft 462 kts 354°
2026-04-22 14:04 31.04560 109.66883 35158 ft 462 kts 354°
2026-04-22 14:04 31.10971 109.67467 35165 ft 462 kts 354°
2026-04-22 14:05 31.17384 109.68055 35169 ft 462 kts 354°
2026-04-22 14:06 31.26989 109.68939 35164 ft 462 kts 354°
2026-04-22 14:06 31.33403 109.69531 35169 ft 462 kts 354°
2026-04-22 14:07 31.39815 109.70122 35178 ft 462 kts 354°
2026-04-22 14:07 31.46233 109.70714 35184 ft 463 kts 354°
2026-04-22 14:08 31.52647 109.71307 35191 ft 463 kts 354°
2026-04-22 14:08 31.59080 109.71901 35198 ft 464 kts 354°
2026-04-22 14:09 31.65555 109.72499 35208 ft 464 kts 354°
2026-04-22 14:09 31.71996 109.73097 35214 ft 464 kts 354°
2026-04-22 14:10 31.78435 109.73697 35221 ft 465 kts 354°
2026-04-22 14:10 31.84878 109.74299 35223 ft 465 kts 354°
2026-04-22 14:11 31.91328 109.74904 35223 ft 465 kts 354°
2026-04-22 14:11 31.97773 109.75501 35224 ft 464 kts 354°
2026-04-22 14:12 32.04220 109.76100 35220 ft 464 kts 354°
2026-04-22 14:12 32.10660 109.76704 35209 ft 464 kts 354°
2026-04-22 14:13 32.17098 109.77314 35207 ft 465 kts 354°
2026-04-22 14:13 32.23557 109.78805 35198 ft 487 kts 11°
2026-04-22 14:14 32.29809 109.82167 35186 ft 495 kts 15°
2026-04-22 14:14 32.36042 109.85622 35185 ft 494 kts 15°
2026-04-22 14:15 32.42271 109.89075 35187 ft 494 kts 15°
2026-04-22 14:15 32.48494 109.92533 35192 ft 494 kts 15°
2026-04-22 14:16 32.54729 109.96006 35198 ft 495 kts 15°
2026-04-22 14:16 32.60954 109.99473 35199 ft 494 kts 15°
2026-04-22 14:17 32.67210 110.02955 35198 ft 493 kts 15°
2026-04-22 14:17 32.73421 110.06427 35199 ft 493 kts 15°
2026-04-22 14:18 32.79618 110.09899 35195 ft 492 kts 16°
2026-04-22 14:18 32.85800 110.13359 35190 ft 491 kts 16°
2026-04-22 14:19 32.91977 110.16820 35189 ft 490 kts 16°
2026-04-22 14:19 32.98190 110.20317 35183 ft 490 kts 16°
2026-04-22 14:20 33.07439 110.25531 35182 ft 490 kts 16°
2026-04-22 14:20 33.13602 110.29007 35178 ft 490 kts 16°
2026-04-22 14:21 33.22852 110.34234 35166 ft 490 kts 16°
2026-04-22 14:22 33.32095 110.39480 35174 ft 491 kts 16°
2026-04-22 14:23 33.41385 110.44754 35152 ft 493 kts 16°
2026-04-22 14:23 33.47589 110.48283 35158 ft 494 kts 16°
2026-04-22 14:24 33.53806 110.51826 35160 ft 495 kts 16°
2026-04-22 14:24 33.60027 110.55385 35165 ft 496 kts 16°
2026-04-22 14:25 33.66271 110.58955 35161 ft 497 kts 16°
2026-04-22 14:25 33.72530 110.62537 35172 ft 499 kts 16°
2026-04-22 14:26 33.78829 110.66150 35177 ft 499 kts 16°
2026-04-22 14:26 33.85094 110.69754 35181 ft 500 kts 16°
2026-04-22 14:27 33.91370 110.73374 35189 ft 500 kts 15°
2026-04-22 14:27 33.97640 110.76992 35194 ft 500 kts 16°
2026-04-22 14:28 34.03919 110.80613 35196 ft 499 kts 16°
2026-04-22 14:28 34.10184 110.84232 35198 ft 500 kts 16°
2026-04-22 14:29 34.16461 110.87876 35191 ft 500 kts 16°
2026-04-22 14:29 34.21671 110.90904 35186 ft 500 kts 16°
2026-04-22 14:30 34.27948 110.94553 35190 ft 501 kts 16°
2026-04-22 14:30 34.34235 110.98214 35189 ft 501 kts 16°
2026-04-22 14:31 34.40432 111.02309 35186 ft 515 kts 28°
2026-04-22 14:31 34.43188 111.05148 35192 ft 526 kts 39°
2026-04-22 14:31 34.45591 111.08550 35189 ft 535 kts 50°
2026-04-22 14:32 34.49559 111.16223 35180 ft 538 kts 54°
2026-04-22 14:32 34.53481 111.23969 35177 ft 539 kts 54°
2026-04-22 14:33 34.57399 111.31722 35170 ft 540 kts 54°
2026-04-22 14:33 34.61323 111.39495 35170 ft 540 kts 54°
2026-04-22 14:34 34.65237 111.47265 35152 ft 539 kts 54°
2026-04-22 14:34 34.69142 111.55052 35165 ft 540 kts 54°
2026-04-22 14:35 34.73048 111.62857 35167 ft 540 kts 54°
2026-04-22 14:35 34.76973 111.70703 35166 ft 540 kts 54°
2026-04-22 14:36 34.80872 111.78514 35158 ft 540 kts 54°
2026-04-22 14:36 34.84761 111.86324 35153 ft 539 kts 55°
2026-04-22 14:37 34.88641 111.94139 35144 ft 539 kts 55°
2026-04-22 14:37 34.92553 112.01936 35140 ft 539 kts 54°
2026-04-22 14:38 34.96479 112.09718 35146 ft 539 kts 54°
2026-04-22 14:38 35.00400 112.17512 35143 ft 539 kts 54°
2026-04-22 14:39 35.04337 112.25387 35147 ft 539 kts 55°
2026-04-22 14:39 35.08229 112.33208 35145 ft 539 kts 55°
2026-04-22 14:40 35.14070 112.44953 35148 ft 539 kts 55°
2026-04-22 14:40 35.17952 112.52779 35145 ft 539 kts 55°
2026-04-22 14:41 35.21838 112.60640 35146 ft 539 kts 55°
2026-04-22 14:41 35.25749 112.68443 35151 ft 539 kts 55°
2026-04-22 14:42 35.29689 112.76250 35152 ft 539 kts 55°
2026-04-22 14:42 35.33641 112.84122 35156 ft 539 kts 55°
2026-04-22 14:43 35.37547 112.91958 35157 ft 539 kts 55°
2026-04-22 14:43 35.41445 112.99809 35150 ft 539 kts 55°
2026-04-22 14:44 35.45332 113.07650 35151 ft 539 kts 55°
2026-04-22 14:44 35.49226 113.15507 35138 ft 539 kts 55°
2026-04-22 14:45 35.53125 113.23379 35161 ft 539 kts 56°
2026-04-22 14:45 35.57010 113.31262 35151 ft 539 kts 56°
2026-04-22 14:46 35.60884 113.39141 35165 ft 540 kts 56°
2026-04-22 14:46 35.64804 113.47008 35171 ft 539 kts 55°
2026-04-22 14:47 35.68794 113.54827 35160 ft 539 kts 54°
2026-04-22 14:47 35.72775 113.62647 35162 ft 539 kts 55°
2026-04-22 14:48 35.76755 113.70538 35159 ft 539 kts 55°